GIA6128 WAHQ-WIMM

Flight info

Callsign GIA6128
Flight time 2h 21m
Altitude 40000
Route WAHQ/26 N0457F400 PURW1B PURWO W17N KIDET DCT ENSAV T10 AKPER AKPE1A WIMM/05
Aircraft A333/H-VGDW/C

Departure

Time 2026-05-06 08:44
Airport Adisoemarmo International Airport (WAHQ)

Arrival

Time 2026-05-06 11:05
Airport Kualanamu International Airport (WIMM)
Time Latitude Longitude Altitude Speed Heading
2026-05-06 08:33 -7.51438 110.74938 418 ft 0 kts 347°
2026-05-06 08:35 -7.51453 110.74942 418 ft 3 kts 347°
2026-05-06 08:35 -7.51471 110.74946 416 ft 3 kts 353°
2026-05-06 08:36 -7.51491 110.74947 418 ft 3 kts 334°
2026-05-06 08:36 -7.51506 110.74960 418 ft 3 kts 287°
2026-05-06 08:36 -7.51508 110.74980 415 ft 3 kts 249°
2026-05-06 08:36 -7.51505 110.74987 418 ft 0 kts 254°
2026-05-06 08:39 -7.51507 110.74980 409 ft 2 kts 254°
2026-05-06 08:39 -7.51513 110.74959 413 ft 4 kts 254°
2026-05-06 08:39 -7.51530 110.74927 414 ft 6 kts 227°
2026-05-06 08:39 -7.51568 110.74919 415 ft 6 kts 174°
2026-05-06 08:40 -7.51615 110.74926 410 ft 8 kts 171°
2026-05-06 08:40 -7.51684 110.74940 408 ft 12 kts 168°
2026-05-06 08:40 -7.51757 110.74946 411 ft 10 kts 204°
2026-05-06 08:40 -7.51792 110.74887 409 ft 11 kts 254°
2026-05-06 08:41 -7.51810 110.74808 414 ft 12 kts 257°
2026-05-06 08:41 -7.51831 110.74713 412 ft 15 kts 257°
2026-05-06 08:41 -7.51862 110.74633 407 ft 9 kts 230°
2026-05-06 08:41 -7.51878 110.74603 413 ft 1 kts 282°
2026-05-06 08:42 -7.51867 110.74601 413 ft 2 kts 355°
2026-05-06 08:42 -7.51857 110.74618 404 ft 6 kts 65°
2026-05-06 08:42 -7.51844 110.74663 413 ft 0 kts 76°
2026-05-06 08:42 -7.51843 110.74664 413 ft 0 kts 76°
2026-05-06 08:43 -7.51832 110.74714 414 ft 24 kts 77°
2026-05-06 08:43 -7.51743 110.75107 410 ft 89 kts 77°
2026-05-06 08:43 -7.51562 110.75912 414 ft 145 kts 77°
2026-05-06 08:43 -7.51310 110.76987 919 ft 156 kts 77°
2026-05-06 08:44 -7.51099 110.78039 1703 ft 152 kts 81°
2026-05-06 08:44 -7.50846 110.79145 2085 ft 175 kts 77°
2026-05-06 08:44 -7.50184 110.80291 2335 ft 212 kts 40°
2026-05-06 08:44 -7.48702 110.80807 2599 ft 247 kts
2026-05-06 08:45 -7.47022 110.80252 3105 ft 265 kts 327°
2026-05-06 08:45 -7.45507 110.79144 3814 ft 272 kts 324°
2026-05-06 08:45 -7.43939 110.78045 4578 ft 277 kts 328°
2026-05-06 08:45 -7.42291 110.77022 5380 ft 280 kts 330°
2026-05-06 08:46 -7.40582 110.76050 6242 ft 284 kts 333°
2026-05-06 08:46 -7.38791 110.75225 7090 ft 283 kts 348°
2026-05-06 08:46 -7.36851 110.75024 7857 ft 286 kts
2026-05-06 08:46 -7.34851 110.75030 8657 ft 290 kts
2026-05-06 08:47 -7.32817 110.75067 9480 ft 293 kts
2026-05-06 08:47 -7.30761 110.75102 10245 ft 299 kts
2026-05-06 08:47 -7.28601 110.75132 10628 ft 319 kts
2026-05-06 08:47 -7.26313 110.75160 10963 ft 338 kts
2026-05-06 08:48 -7.23926 110.75135 11487 ft 349 kts 356°
2026-05-06 08:48 -7.21528 110.74656 12133 ft 356 kts 341°
2026-05-06 08:48 -7.19320 110.73480 12832 ft 362 kts 323°
2026-05-06 08:48 -7.17543 110.71677 13584 ft 365 kts 308°
2026-05-06 08:49 -7.16058 110.69587 14293 ft 369 kts 303°
2026-05-06 08:49 -7.14710 110.67382 15007 ft 371 kts 300°
2026-05-06 08:49 -7.13416 110.65115 15695 ft 374 kts 299°
2026-05-06 08:49 -7.12132 110.62826 16386 ft 377 kts 299°
2026-05-06 08:50 -7.10831 110.60527 17011 ft 380 kts 300°
2026-05-06 08:50 -7.09517 110.58247 17647 ft 382 kts 300°
2026-05-06 08:50 -7.08160 110.55931 18267 ft 386 kts 300°
2026-05-06 08:50 -7.06777 110.53596 18844 ft 390 kts 301°
2026-05-06 08:51 -7.05375 110.51244 19368 ft 394 kts 301°
2026-05-06 08:51 -7.03954 110.48868 19900 ft 398 kts 301°
2026-05-06 08:51 -7.02517 110.46466 20415 ft 401 kts 301°
2026-05-06 08:51 -7.01074 110.44056 20904 ft 405 kts 301°
2026-05-06 08:52 -6.99610 110.41607 21399 ft 408 kts 301°
2026-05-06 08:52 -6.98146 110.39156 21900 ft 410 kts 301°
2026-05-06 08:52 -6.96648 110.36698 22368 ft 413 kts 302°
2026-05-06 08:52 -6.95098 110.34234 22814 ft 417 kts 303°
2026-05-06 08:53 -6.93544 110.31804 23236 ft 420 kts 303°
2026-05-06 08:53 -6.91947 110.29323 23652 ft 423 kts 303°
2026-05-06 08:53 -6.90342 110.26831 24056 ft 426 kts 303°
2026-05-06 08:53 -6.88724 110.24313 24454 ft 429 kts 303°
2026-05-06 08:54 -6.87097 110.21773 24839 ft 432 kts 303°
2026-05-06 08:54 -6.85463 110.19221 25230 ft 435 kts 303°
2026-05-06 08:54 -6.83821 110.16654 25592 ft 438 kts 303°
2026-05-06 08:54 -6.82169 110.14065 25982 ft 440 kts 303°
2026-05-06 08:55 -6.80507 110.11460 26356 ft 443 kts 303°
2026-05-06 08:55 -6.78856 110.08875 26717 ft 446 kts 303°
2026-05-06 08:55 -6.77173 110.06240 27090 ft 448 kts 303°
2026-05-06 08:55 -6.75480 110.03590 27490 ft 450 kts 303°
2026-05-06 08:56 -6.73781 110.00933 27838 ft 453 kts 302°
2026-05-06 08:56 -6.72069 109.98258 28190 ft 456 kts 302°
2026-05-06 08:56 -6.70351 109.95569 28495 ft 459 kts 302°
2026-05-06 08:56 -6.68620 109.92862 28855 ft 461 kts 302°
2026-05-06 08:57 -6.66879 109.90138 29169 ft 464 kts 302°
2026-05-06 08:57 -6.65128 109.87400 29503 ft 466 kts 302°
2026-05-06 08:57 -6.63372 109.84656 29823 ft 468 kts 302°
2026-05-06 08:57 -6.61602 109.81893 30159 ft 471 kts 302°
2026-05-06 08:58 -6.59827 109.79118 30485 ft 473 kts 302°
2026-05-06 08:58 -6.58047 109.76337 30799 ft 475 kts 302°
2026-05-06 08:58 -6.56258 109.73541 31101 ft 477 kts 302°
2026-05-06 08:58 -6.55064 109.71677 31298 ft 477 kts 302°
2026-05-06 08:59 -6.52668 109.67937 31704 ft 480 kts 302°
2026-05-06 08:59 -6.50857 109.65109 31977 ft 482 kts 302°
2026-05-06 08:59 -6.49040 109.62273 32313 ft 483 kts 302°
2026-05-06 08:59 -6.47218 109.59431 32735 ft 481 kts 302°
2026-05-06 09:00 -6.45408 109.56607 33172 ft 479 kts 302°
2026-05-06 09:00 -6.44212 109.54740 33440 ft 478 kts 302°
2026-05-06 09:00 -6.42410 109.51929 33852 ft 476 kts 302°
2026-05-06 09:00 -6.40620 109.49138 34237 ft 475 kts 302°
2026-05-06 09:01 -6.38829 109.46345 34606 ft 474 kts 302°
2026-05-06 09:01 -6.37044 109.43560 34971 ft 473 kts 302°
2026-05-06 09:01 -6.34685 109.39880 35444 ft 472 kts 302°
2026-05-06 09:01 -6.32910 109.37113 35793 ft 471 kts 302°
2026-05-06 09:02 -6.31709 109.35242 36014 ft 470 kts 302°
2026-05-06 09:02 -6.30041 109.32465 36351 ft 469 kts 298°
2026-05-06 09:02 -6.28496 109.29583 36680 ft 468 kts 297°
2026-05-06 09:02 -6.26980 109.26677 36979 ft 468 kts 297°
2026-05-06 09:03 -6.25490 109.23772 37319 ft 466 kts 296°
2026-05-06 09:03 -6.24018 109.20879 37681 ft 463 kts 296°
2026-05-06 09:03 -6.22555 109.17997 38045 ft 461 kts 296°
2026-05-06 09:03 -6.21102 109.15136 38393 ft 458 kts 296°
2026-05-06 09:04 -6.19557 109.12342 38704 ft 456 kts 302°
2026-05-06 09:04 -6.17732 109.09780 38964 ft 456 kts 307°
2026-05-06 09:04 -6.15731 109.07257 39217 ft 455 kts 308°
2026-05-06 09:04 -6.13749 109.04822 39439 ft 455 kts 309°
2026-05-06 09:05 -6.11736 109.02368 39670 ft 454 kts 309°
2026-05-06 09:05 -6.09718 108.99915 39772 ft 456 kts 309°
2026-05-06 09:05 -6.07689 108.97449 39777 ft 457 kts 309°
2026-05-06 09:06 -6.03630 108.92521 39776 ft 457 kts 309°
2026-05-06 09:06 -5.99571 108.87593 39776 ft 457 kts 309°
2026-05-06 09:07 -5.95515 108.82669 39777 ft 458 kts 309°
2026-05-06 09:07 -5.91473 108.77767 39776 ft 459 kts 309°
2026-05-06 09:08 -5.87398 108.72825 39776 ft 459 kts 309°
2026-05-06 09:08 -5.83328 108.67890 39776 ft 459 kts 309°
2026-05-06 09:09 -5.79253 108.62950 39776 ft 459 kts 309°
2026-05-06 09:09 -5.75186 108.58020 39776 ft 458 kts 309°
2026-05-06 09:10 -5.71114 108.53087 39777 ft 458 kts 309°
2026-05-06 09:10 -5.67052 108.48163 39776 ft 457 kts 309°
2026-05-06 09:11 -5.62993 108.43249 39776 ft 457 kts 309°
2026-05-06 09:11 -5.58940 108.38338 39776 ft 457 kts 309°
2026-05-06 09:12 -5.54883 108.33430 39776 ft 457 kts 309°
2026-05-06 09:12 -5.50856 108.28556 39776 ft 457 kts 309°
2026-05-06 09:13 -5.46799 108.23649 39776 ft 457 kts 309°
2026-05-06 09:13 -5.42739 108.18739 39776 ft 457 kts 309°
2026-05-06 09:14 -5.38676 108.13824 39776 ft 458 kts 309°
2026-05-06 09:14 -5.34607 108.08902 39776 ft 458 kts 309°
2026-05-06 09:15 -5.30539 108.03985 39776 ft 458 kts 310°
2026-05-06 09:15 -5.26472 107.99067 39776 ft 458 kts 310°
2026-05-06 09:16 -5.22426 107.94181 39776 ft 457 kts 310°
2026-05-06 09:16 -5.18355 107.89263 39776 ft 457 kts 310°
2026-05-06 09:17 -5.14299 107.84366 39776 ft 457 kts 310°
2026-05-06 09:17 -5.10232 107.79452 39777 ft 458 kts 310°
2026-05-06 09:18 -5.06160 107.74538 39776 ft 458 kts 310°
2026-05-06 09:18 -5.02085 107.69620 39776 ft 458 kts 310°
2026-05-06 09:19 -4.98034 107.64731 39776 ft 459 kts 310°
2026-05-06 09:19 -4.93953 107.59807 39776 ft 459 kts 310°
2026-05-06 09:20 -4.89864 107.54875 39776 ft 459 kts 310°
2026-05-06 09:20 -4.85781 107.49952 39776 ft 459 kts 310°
2026-05-06 09:21 -4.81695 107.45023 39776 ft 460 kts 310°
2026-05-06 09:21 -4.77600 107.40089 39776 ft 459 kts 310°
2026-05-06 09:22 -4.73511 107.35162 39776 ft 459 kts 310°
2026-05-06 09:22 -4.69449 107.30266 39776 ft 460 kts 310°
2026-05-06 09:23 -4.65355 107.25334 39776 ft 460 kts 310°
2026-05-06 09:23 -4.61258 107.20400 39776 ft 460 kts 310°
2026-05-06 09:24 -4.57167 107.15474 39776 ft 460 kts 310°
2026-05-06 09:24 -4.53095 107.10572 39777 ft 460 kts 310°
2026-05-06 09:25 -4.49002 107.05645 39776 ft 459 kts 310°
2026-05-06 09:25 -4.44909 107.00716 39776 ft 460 kts 310°
2026-05-06 09:26 -4.40811 106.95788 39776 ft 460 kts 310°
2026-05-06 09:26 -4.36709 106.90854 39785 ft 460 kts 310°
2026-05-06 09:27 -4.32639 106.85956 39780 ft 460 kts 310°
2026-05-06 09:27 -4.28544 106.81034 39776 ft 460 kts 310°
2026-05-06 09:28 -4.24442 106.76102 39781 ft 461 kts 310°
2026-05-06 09:28 -4.20338 106.71168 39794 ft 461 kts 310°
2026-05-06 09:29 -4.16237 106.66238 39795 ft 461 kts 310°
2026-05-06 09:29 -4.12131 106.61303 39794 ft 460 kts 310°
2026-05-06 09:30 -4.08024 106.56368 39794 ft 461 kts 310°
2026-05-06 09:30 -4.03920 106.51438 39794 ft 461 kts 310°
2026-05-06 09:31 -3.99840 106.46539 39794 ft 461 kts 310°
2026-05-06 09:31 -3.95734 106.41609 39795 ft 461 kts 310°
2026-05-06 09:32 -3.91624 106.36673 39795 ft 461 kts 310°
2026-05-06 09:32 -3.87507 106.31729 39795 ft 462 kts 310°
2026-05-06 09:33 -3.83395 106.26793 39795 ft 462 kts 310°
2026-05-06 09:33 -3.79276 106.21850 39795 ft 462 kts 310°
2026-05-06 09:34 -3.75161 106.16911 39795 ft 462 kts 310°
2026-05-06 09:34 -3.71042 106.11970 39795 ft 462 kts 310°
2026-05-06 09:35 -3.66945 106.07057 39795 ft 462 kts 310°
2026-05-06 09:35 -3.62823 106.02114 39795 ft 462 kts 310°
2026-05-06 09:36 -3.58707 105.97177 39795 ft 462 kts 310°
2026-05-06 09:36 -3.54591 105.92241 39795 ft 461 kts 310°
2026-05-06 09:37 -3.50482 105.87317 39795 ft 461 kts 310°
2026-05-06 09:37 -3.46371 105.82391 39795 ft 461 kts 310°
2026-05-06 09:38 -3.42280 105.77487 39795 ft 461 kts 310°
2026-05-06 09:38 -3.38168 105.72558 39795 ft 461 kts 310°
2026-05-06 09:39 -3.34055 105.67631 39795 ft 461 kts 310°
2026-05-06 09:39 -3.29946 105.62709 39803 ft 461 kts 310°
2026-05-06 09:40 -3.25836 105.57790 39805 ft 460 kts 310°
2026-05-06 09:40 -3.19678 105.50413 39804 ft 460 kts 310°
2026-05-06 09:41 -3.15595 105.45523 39804 ft 461 kts 310°
2026-05-06 09:41 -3.11474 105.40591 39804 ft 461 kts 310°
2026-05-06 09:42 -3.07366 105.35673 39804 ft 460 kts 310°
2026-05-06 09:42 -3.03257 105.30757 39804 ft 460 kts 310°
2026-05-06 09:43 -2.99153 105.25843 39803 ft 460 kts 310°
2026-05-06 09:43 -2.95049 105.20932 39805 ft 460 kts 310°
2026-05-06 09:44 -2.90973 105.16057 39804 ft 460 kts 310°
2026-05-06 09:44 -2.86865 105.11145 39805 ft 460 kts 310°
2026-05-06 09:45 -2.82761 105.06235 39804 ft 460 kts 310°
2026-05-06 09:45 -2.78659 105.01328 39803 ft 460 kts 310°
2026-05-06 09:46 -2.74555 104.96422 39804 ft 459 kts 310°
2026-05-06 09:46 -2.70452 104.91516 39805 ft 459 kts 310°
2026-05-06 09:47 -2.66342 104.86606 39803 ft 460 kts 310°
2026-05-06 09:47 -2.62932 104.82531 39803 ft 459 kts 310°
2026-05-06 09:48 -2.58161 104.76825 39803 ft 459 kts 310°
2026-05-06 09:48 -2.54730 104.72720 39804 ft 459 kts 310°
2026-05-06 09:49 -2.49958 104.67019 39804 ft 459 kts 310°
2026-05-06 09:49 -2.46550 104.62948 39803 ft 459 kts 310°
2026-05-06 09:50 -2.42450 104.58050 39803 ft 459 kts 310°
2026-05-06 09:50 -2.38346 104.53147 39805 ft 459 kts 311°
2026-05-06 09:51 -2.34238 104.48241 39804 ft 459 kts 311°
2026-05-06 09:51 -2.30139 104.43346 39803 ft 459 kts 311°
2026-05-06 09:52 -2.26038 104.38448 39804 ft 459 kts 311°
2026-05-06 09:52 -2.21941 104.33554 39804 ft 459 kts 311°
2026-05-06 09:53 -2.17866 104.28690 39805 ft 459 kts 311°
2026-05-06 09:53 -2.13763 104.23794 39803 ft 459 kts 311°
2026-05-06 09:54 -2.09659 104.18892 39805 ft 459 kts 311°
2026-05-06 09:54 -2.05560 104.13999 39804 ft 459 kts 311°
2026-05-06 09:55 -2.01455 104.09100 39803 ft 459 kts 311°
2026-05-06 09:55 -1.97382 104.04238 39805 ft 459 kts 311°
2026-05-06 09:56 -1.93281 103.99345 39803 ft 459 kts 311°
2026-05-06 09:56 -1.89178 103.94448 39804 ft 459 kts 311°
2026-05-06 09:57 -1.85071 103.89550 39803 ft 459 kts 311°
2026-05-06 09:57 -1.80965 103.84652 39802 ft 459 kts 311°
2026-05-06 09:58 -1.76860 103.79755 39794 ft 459 kts 311°
2026-05-06 09:58 -1.72759 103.74863 39795 ft 459 kts 311°
2026-05-06 09:59 -1.68651 103.69964 39795 ft 459 kts 311°
2026-05-06 09:59 -1.64547 103.65069 39795 ft 459 kts 311°
2026-05-06 10:00 -1.60473 103.60210 39794 ft 459 kts 311°
2026-05-06 10:00 -1.56373 103.55321 39795 ft 459 kts 311°
2026-05-06 10:01 -1.52272 103.50430 39794 ft 459 kts 311°
2026-05-06 10:01 -1.48162 103.45530 39795 ft 459 kts 311°
2026-05-06 10:02 -1.44055 103.40634 39796 ft 459 kts 311°
2026-05-06 10:02 -1.39974 103.35769 39795 ft 459 kts 311°
2026-05-06 10:03 -1.35868 103.30874 39795 ft 459 kts 311°
2026-05-06 10:03 -1.31763 103.25979 39795 ft 459 kts 311°
2026-05-06 10:04 -1.27653 103.21080 39795 ft 459 kts 311°
2026-05-06 10:04 -1.23550 103.16188 39795 ft 459 kts 311°
2026-05-06 10:05 -1.19446 103.11298 39794 ft 459 kts 310°
2026-05-06 10:05 -1.15337 103.06400 39794 ft 459 kts 310°
2026-05-06 10:06 -1.11235 103.01512 39795 ft 459 kts 310°
2026-05-06 10:06 -1.07151 102.96644 39794 ft 459 kts 310°
2026-05-06 10:07 -1.03021 102.91723 39795 ft 459 kts 310°
2026-05-06 10:07 -0.98919 102.86835 39795 ft 459 kts 311°
2026-05-06 10:08 -0.94841 102.81975 39786 ft 459 kts 311°
2026-05-06 10:08 -0.90742 102.77091 39786 ft 459 kts 311°
2026-05-06 10:09 -0.86638 102.72203 39786 ft 459 kts 310°
2026-05-06 10:09 -0.82537 102.67316 39785 ft 459 kts 310°
2026-05-06 10:10 -0.78447 102.62444 39786 ft 459 kts 310°
2026-05-06 10:10 -0.74346 102.57557 39795 ft 458 kts 310°
2026-05-06 10:11 -0.70271 102.52701 39794 ft 458 kts 310°
2026-05-06 10:11 -0.66170 102.47818 39795 ft 458 kts 310°
2026-05-06 10:12 -0.62073 102.42936 39795 ft 458 kts 310°
2026-05-06 10:12 -0.57976 102.38054 39795 ft 458 kts 310°
2026-05-06 10:13 -0.53880 102.33173 39794 ft 458 kts 310°
2026-05-06 10:13 -0.49789 102.28300 39795 ft 458 kts 310°
2026-05-06 10:14 -0.45691 102.23418 39794 ft 458 kts 310°
2026-05-06 10:14 -0.41626 102.18578 39795 ft 457 kts 310°
2026-05-06 10:15 -0.37532 102.13701 39794 ft 458 kts 310°
2026-05-06 10:15 -0.33442 102.08829 39786 ft 457 kts 310°
2026-05-06 10:16 -0.29349 102.03954 39786 ft 457 kts 310°
2026-05-06 10:16 -0.25250 101.99074 39785 ft 457 kts 310°
2026-05-06 10:17 -0.21162 101.94205 39786 ft 457 kts 310°
2026-05-06 10:17 -0.17072 101.89334 39785 ft 457 kts 310°
2026-05-06 10:18 -0.13013 101.84499 39786 ft 457 kts 310°
2026-05-06 10:18 -0.08924 101.79629 39785 ft 457 kts 310°
2026-05-06 10:19 -0.04837 101.74761 39786 ft 457 kts 310°
2026-05-06 10:19 -0.00750 101.69893 39786 ft 457 kts 310°
2026-05-06 10:20 0.03342 101.65020 39776 ft 457 kts 310°
2026-05-06 10:20 0.07433 101.60147 39776 ft 457 kts 310°
2026-05-06 10:21 0.11524 101.55276 39776 ft 458 kts 310°
2026-05-06 10:21 0.15619 101.50399 39776 ft 458 kts 310°
2026-05-06 10:22 0.19715 101.45519 39776 ft 458 kts 310°
2026-05-06 10:22 0.23791 101.40666 39776 ft 459 kts 310°
2026-05-06 10:23 0.27894 101.35779 39776 ft 459 kts 310°
2026-05-06 10:23 0.32000 101.30889 39777 ft 459 kts 310°
2026-05-06 10:24 0.36108 101.25997 39776 ft 460 kts 310°
2026-05-06 10:24 0.40220 101.21099 39775 ft 460 kts 311°
2026-05-06 10:25 0.44332 101.16201 39777 ft 460 kts 310°
2026-05-06 10:25 0.48449 101.11295 39776 ft 461 kts 310°
2026-05-06 10:26 0.52541 101.06421 39776 ft 461 kts 310°
2026-05-06 10:26 0.56659 101.01516 39776 ft 461 kts 310°
2026-05-06 10:27 0.60784 100.96602 39776 ft 461 kts 310°
2026-05-06 10:27 0.64908 100.91688 39782 ft 461 kts 311°
2026-05-06 10:28 0.69038 100.86769 39786 ft 462 kts 310°
2026-05-06 10:28 0.73173 100.81843 39786 ft 462 kts 310°
2026-05-06 10:29 0.77307 100.76917 39786 ft 462 kts 310°
2026-05-06 10:29 0.81437 100.71997 39785 ft 462 kts 310°
2026-05-06 10:30 0.85541 100.67106 39786 ft 462 kts 310°
2026-05-06 10:30 0.89675 100.62182 39786 ft 462 kts 310°
2026-05-06 10:31 0.93808 100.57257 39786 ft 462 kts 310°
2026-05-06 10:31 0.97944 100.52328 39785 ft 462 kts 310°
2026-05-06 10:32 1.02084 100.47393 39785 ft 462 kts 310°
2026-05-06 10:32 1.06191 100.42498 39786 ft 462 kts 310°
2026-05-06 10:33 1.10325 100.37575 39785 ft 462 kts 310°
2026-05-06 10:33 1.14469 100.32632 39786 ft 463 kts 310°
2026-05-06 10:34 1.17906 100.28536 39785 ft 462 kts 310°
2026-05-06 10:34 1.22036 100.23611 39776 ft 462 kts 310°
2026-05-06 10:35 1.26840 100.17887 39776 ft 462 kts 310°
2026-05-06 10:35 1.30307 100.13756 39776 ft 462 kts 310°
2026-05-06 10:36 1.35118 100.08022 39776 ft 463 kts 310°
2026-05-06 10:36 1.38556 100.03923 39776 ft 462 kts 310°
2026-05-06 10:37 1.42687 99.98998 39776 ft 462 kts 310°
2026-05-06 10:37 1.46817 99.94074 39776 ft 462 kts 310°
2026-05-06 10:38 1.50954 99.89142 39776 ft 462 kts 310°
2026-05-06 10:38 1.55086 99.84214 39776 ft 462 kts 310°
2026-05-06 10:39 1.59194 99.79315 39776 ft 462 kts 310°
2026-05-06 10:39 1.63321 99.74393 39771 ft 462 kts 310°
2026-05-06 10:40 1.65382 99.71934 39525 ft 459 kts 310°
2026-05-06 10:40 1.67425 99.69497 39051 ft 457 kts 310°
2026-05-06 10:40 1.69468 99.67060 38542 ft 456 kts 310°
2026-05-06 10:40 1.71510 99.64626 38031 ft 456 kts 310°
2026-05-06 10:41 1.73542 99.62203 37516 ft 455 kts 310°
2026-05-06 10:41 1.75578 99.59786 36992 ft 454 kts 312°
2026-05-06 10:41 1.77856 99.57593 36345 ft 456 kts 323°
2026-05-06 10:41 1.80555 99.55904 35575 ft 460 kts 332°
2026-05-06 10:42 1.83394 99.54418 34930 ft 461 kts 333°
2026-05-06 10:42 1.86262 99.52955 34284 ft 463 kts 333°
2026-05-06 10:42 1.89141 99.51487 33595 ft 465 kts 333°
2026-05-06 10:42 1.92035 99.50005 32872 ft 468 kts 333°
2026-05-06 10:43 1.94939 99.48513 32147 ft 471 kts 333°
2026-05-06 10:43 1.97858 99.47011 31451 ft 472 kts 333°
2026-05-06 10:43 2.00762 99.45516 30940 ft 468 kts 333°
2026-05-06 10:44 2.06480 99.42569 29900 ft 462 kts 333°
2026-05-06 10:44 2.09325 99.41101 29363 ft 459 kts 333°
2026-05-06 10:44 2.12150 99.39644 28817 ft 456 kts 333°
2026-05-06 10:44 2.14961 99.38195 28277 ft 453 kts 333°
2026-05-06 10:45 2.17754 99.36753 27720 ft 451 kts 333°
2026-05-06 10:45 2.20533 99.35320 27188 ft 448 kts 333°
2026-05-06 10:45 2.23293 99.33897 26663 ft 444 kts 333°
2026-05-06 10:45 2.26032 99.32484 26106 ft 441 kts 333°
2026-05-06 10:46 2.28757 99.31079 25557 ft 439 kts 333°
2026-05-06 10:46 2.31456 99.29686 25019 ft 435 kts 334°
2026-05-06 10:46 2.34139 99.28301 24486 ft 432 kts 334°
2026-05-06 10:46 2.36799 99.26928 23947 ft 429 kts 334°
2026-05-06 10:47 2.39445 99.25563 23416 ft 425 kts 334°
2026-05-06 10:47 2.42065 99.24219 22918 ft 421 kts 335°
2026-05-06 10:47 2.44749 99.23203 22385 ft 417 kts 347°
2026-05-06 10:47 2.47567 99.22566 21884 ft 412 kts 350°
2026-05-06 10:48 2.50369 99.22019 21409 ft 408 kts 351°
2026-05-06 10:48 2.53151 99.21485 20943 ft 406 kts 351°
2026-05-06 10:48 2.55910 99.20953 20469 ft 403 kts 351°
2026-05-06 10:48 2.58656 99.20418 20002 ft 400 kts 351°
2026-05-06 10:49 2.61376 99.19886 19543 ft 397 kts 351°
2026-05-06 10:49 2.64075 99.19357 19062 ft 394 kts 351°
2026-05-06 10:49 2.66753 99.18832 18626 ft 391 kts 351°
2026-05-06 10:49 2.69412 99.18310 18169 ft 388 kts 351°
2026-05-06 10:50 2.72058 99.17789 17723 ft 385 kts 351°
2026-05-06 10:50 2.74687 99.17272 17271 ft 383 kts 351°
2026-05-06 10:50 2.77290 99.16760 16831 ft 380 kts 351°
2026-05-06 10:50 2.79874 99.16252 16393 ft 377 kts 351°
2026-05-06 10:51 2.82411 99.15752 15958 ft 375 kts 351°
2026-05-06 10:51 2.84956 99.15251 15525 ft 371 kts 351°
2026-05-06 10:51 2.87488 99.14753 15092 ft 369 kts 351°
2026-05-06 10:51 2.90000 99.14259 14668 ft 366 kts 350°
2026-05-06 10:52 2.92490 99.13768 14242 ft 364 kts 350°
2026-05-06 10:52 2.94963 99.13280 13815 ft 360 kts 349°
2026-05-06 10:52 2.97353 99.12550 13382 ft 360 kts 336°
2026-05-06 10:52 2.99416 99.11138 12934 ft 360 kts 319°
2026-05-06 10:53 3.01218 99.09418 12511 ft 357 kts 316°
2026-05-06 10:53 3.02965 99.07658 12180 ft 355 kts 315°
2026-05-06 10:53 3.04690 99.05914 11939 ft 346 kts 316°
2026-05-06 10:53 3.06356 99.04238 11688 ft 335 kts 316°
2026-05-06 10:54 3.07965 99.02626 11356 ft 328 kts 316°
2026-05-06 10:54 3.09567 99.01025 10976 ft 323 kts 316°
2026-05-06 10:54 3.11145 98.99451 10600 ft 318 kts 316°
2026-05-06 10:54 3.12703 98.97900 10226 ft 313 kts 315°
2026-05-06 10:55 3.14234 98.96376 9917 ft 307 kts 315°
2026-05-06 10:55 3.15740 98.94876 9536 ft 303 kts 315°
2026-05-06 10:55 3.17241 98.93382 9083 ft 302 kts 315°
2026-05-06 10:55 3.18732 98.91899 8703 ft 301 kts 315°
2026-05-06 10:56 3.20211 98.90429 8310 ft 298 kts 315°
2026-05-06 10:56 3.21674 98.88969 7909 ft 296 kts 315°
2026-05-06 10:56 3.23109 98.87540 7554 ft 293 kts 315°
2026-05-06 10:56 3.24547 98.86109 7216 ft 290 kts 315°
2026-05-06 10:57 3.25964 98.84698 6881 ft 286 kts 315°
2026-05-06 10:57 3.27375 98.83293 6550 ft 284 kts 315°
2026-05-06 10:57 3.28774 98.81903 6210 ft 283 kts 315°
2026-05-06 10:57 3.30168 98.80513 5900 ft 282 kts 315°
2026-05-06 10:58 3.31567 98.79147 5559 ft 280 kts 316°
2026-05-06 10:58 3.32970 98.77800 5222 ft 279 kts 316°
2026-05-06 10:58 3.34366 98.76467 4897 ft 277 kts 316°
2026-05-06 10:58 3.35761 98.75135 4573 ft 276 kts 316°
2026-05-06 10:59 3.37143 98.73817 4253 ft 274 kts 316°
2026-05-06 10:59 3.38520 98.72504 3937 ft 273 kts 316°
2026-05-06 10:59 3.39897 98.71191 3617 ft 272 kts 316°
2026-05-06 10:59 3.41255 98.69919 3305 ft 269 kts 320°
2026-05-06 11:00 3.42863 98.69000 3044 ft 267 kts 345°
2026-05-06 11:00 3.44699 98.69034 2996 ft 266 kts 15°
2026-05-06 11:00 3.46395 98.69777 2995 ft 268 kts 32°
2026-05-06 11:00 3.47828 98.70970 2996 ft 269 kts 45°
2026-05-06 11:01 3.49085 98.72313 2989 ft 257 kts 46°
2026-05-06 11:01 3.50288 98.73563 3004 ft 240 kts 45°
2026-05-06 11:01 3.51421 98.74698 2998 ft 222 kts 44°
2026-05-06 11:01 3.52488 98.75757 2859 ft 213 kts 44°
2026-05-06 11:02 3.53526 98.76787 2567 ft 209 kts 44°
2026-05-06 11:02 3.54548 98.77811 2266 ft 207 kts 45°
2026-05-06 11:02 3.55562 98.78827 1983 ft 204 kts 44°
2026-05-06 11:02 3.56557 98.79823 1710 ft 199 kts 45°
2026-05-06 11:03 3.57492 98.80760 1444 ft 186 kts 45°
2026-05-06 11:03 3.58377 98.81646 1205 ft 173 kts 45°
2026-05-06 11:03 3.59194 98.82465 993 ft 158 kts 44°
2026-05-06 11:03 3.59941 98.83212 784 ft 146 kts 45°
2026-05-06 11:04 3.60624 98.83896 593 ft 133 kts 44°
2026-05-06 11:04 3.61272 98.84549 417 ft 132 kts 43°
2026-05-06 11:04 3.61925 98.85198 265 ft 133 kts 44°
2026-05-06 11:04 3.62579 98.85856 84 ft 134 kts 44°
2026-05-06 11:05 3.63197 98.86468 32 ft 105 kts 45°
2026-05-06 11:05 3.63592 98.86863 32 ft 66 kts 45°
2026-05-06 11:05 3.63876 98.87143 33 ft 52 kts 44°
2026-05-06 11:05 3.64077 98.87401 30 ft 40 kts 68°
2026-05-06 11:06 3.64144 98.87619 30 ft 27 kts 68°
2026-05-06 11:06 3.64247 98.87770 31 ft 26 kts 46°
2026-05-06 11:06 3.64294 98.87840 31 ft 9 kts 90°
2026-05-06 11:06 3.64276 98.87902 31 ft 10 kts 97°
2026-05-06 11:07 3.64297 98.87957 31 ft 4 kts 79°
2026-05-06 11:07 3.64284 98.87994 31 ft 10 kts 118°
2026-05-06 11:07 3.64225 98.88056 31 ft 14 kts 136°
2026-05-06 11:07 3.64160 98.88119 31 ft 12 kts 137°
2026-05-06 11:08 3.64092 98.88122 30 ft 10 kts 210°
2026-05-06 11:08 3.64032 98.88068 31 ft 13 kts 224°
2026-05-06 11:08 3.63960 98.87996 31 ft 15 kts 225°
2026-05-06 11:08 3.63885 98.87969 31 ft 10 kts 158°
2026-05-06 11:09 3.63834 98.87997 31 ft 7 kts 174°
2026-05-06 11:09 3.63795 98.87983 31 ft 5 kts 215°
2026-05-06 11:09 3.63774 98.87964 31 ft 0 kts 223°